Change the Weather History Date:

Sunday, April 21, 2013

  Actual Average (KFWN) Record (KFWN)
Temperature  
Mean Temperature 43 °F -  
Max Temperature 53 °F 61 °F 88 °F (1976)
Min Temperature 33 °F 39 °F 24 °F (1961)
Degree Days  
Heating Degree Days 22    
Moisture  
Dew Point 21 °F    
Average Humidity 42    
Maximum Humidity 59    
Minimum Humidity 27    
Precipitation  
Precipitation 0.00 in - - ()
Sea Level Pressure  
Sea Level Pressure 30.53 in    
Wind  
Wind Speed 6 mph (North)    
Max Wind Speed 9 mph    
Max Gust Speed 21 mph    
Averages and records for this station are not official NWS values.
T = Trace of Precipitation, MM = Missing Value Source: NWS Daily Summary

Daily Weather History Graph

Daily Weather History Graph

Search for Another Location

Airport or City:

Trip Planner

Search our weather history database for the weather conditions in past years. The results will help you decide how hot, cold, wet, or windy it might be!

Date:

Astronomy

Apr. 21, 2013 Rise Set
Actual Time 6:10 AM EDT 7:45 PM EDT
Civil Twilight 5:41 AM EDT 8:14 PM EDT
Nautical Twilight 5:06 AM EDT 8:49 PM EDT
Astronomical Twilight 4:29 AM EDT 9:26 PM EDT
Moon 3:26 PM EDT (4/21) 3:33 AM EDT (4/21)
Length of Visible Light 14h 32m
Length of Day
13h 34m
Waxing Gibbous, 79% of the Moon is Illuminated
Apr 21
Waxing Gibbous
Apr 25
Full
May 2
Last Quarter
May 9
New
May 18
First Quarter

Hourly Weather History & Observations

Time (EDT) Temp. Windchill Dew Point Humidity Pressure Visibility Wind Dir Wind Speed Gust Speed Precip Events Conditions
12:54 AM 37.9 °F 31.5 °F 19.0 °F 47% 30.37 in - North 9.2 mph 20.7 mph N/A   Unknown
1:54 AM 37.0 °F 32.4 °F 17.1 °F 44% 30.39 in - NNW 5.8 mph - N/A   Unknown
2:54 AM 36.0 °F 29.6 °F 18.0 °F 48% 30.40 in - North 8.1 mph - N/A   Unknown
3:54 AM 35.1 °F - 19.0 °F 52% 30.42 in - Calm Calm - N/A   Unknown
4:54 AM 34.0 °F 28.8 °F 19.0 °F 54% 30.44 in - NNW 5.8 mph - N/A   Unknown
5:54 AM 33.1 °F 26.1 °F 19.9 °F 59% 30.47 in - North 8.1 mph - N/A   Unknown
6:54 AM 34.0 °F 28.0 °F 21.0 °F 59% 30.51 in - Variable 6.9 mph - N/A   Unknown
7:54 AM 36.0 °F 29.6 °F 21.0 °F 55% 30.55 in - North 8.1 mph - N/A   Unknown
8:54 AM 37.9 °F 31.5 °F 21.0 °F 51% 30.57 in - North 9.2 mph 20.7 mph N/A   Unknown
9:54 AM 41.0 °F 35.2 °F 21.0 °F 45% 30.58 in - North 9.2 mph - N/A   Unknown
10:54 AM 42.1 °F 38.4 °F 19.9 °F 41% 30.58 in - Variable 5.8 mph - N/A   Unknown
11:54 AM 45.0 °F 40.1 °F 19.9 °F 37% 30.58 in - NW 9.2 mph 16.1 mph N/A   Unknown
12:54 PM 48.0 °F - 21.0 °F 34% 30.58 in - NE 6.9 mph - N/A   Unknown
1:54 PM 48.9 °F - 19.9 °F 32% 30.57 in - Variable 6.9 mph - N/A   Unknown
2:54 PM 50.0 °F - 19.9 °F 31% 30.56 in - Variable 4.6 mph - N/A   Unknown
3:54 PM 52.0 °F - 21.0 °F 30% 30.55 in - Variable 3.5 mph - N/A   Unknown
4:54 PM 53.1 °F - 21.9 °F 30% 30.54 in - Variable 4.6 mph - N/A   Unknown
5:54 PM 53.1 °F - 21.9 °F 30% 30.55 in - North 6.9 mph - N/A   Unknown
6:54 PM 51.1 °F - 21.0 °F 31% 30.56 in - Variable 3.5 mph - N/A   Unknown
7:54 PM 50.0 °F - 17.1 °F 27% 30.58 in - NE 3.5 mph - N/A   Unknown
8:54 PM 48.0 °F - 19.0 °F 32% 30.60 in - Calm Calm - N/A   Unknown
9:54 PM 46.0 °F - 23.0 °F 40% 30.61 in - Calm Calm - N/A   Unknown
10:54 PM 43.0 °F - 26.1 °F 51% 30.61 in - Calm Calm - N/A   Unknown
11:54 PM 41.0 °F - 27.0 °F 57% 30.62 in - Calm Calm - N/A   Unknown